Weather History for Island Lake, MB

Change the Weather History Date:

Monday, January 21, 2013

  Actual Average Record
Temperature  
Mean Temperature -32 °F -  
Max Temperature -18 °F 6 °F 28 °F (2008)
Min Temperature -46 °F -10 °F -46 °F (2013)
Degree Days  
Heating Degree Days 97    
Moisture  
Dew Point -33 °F    
Average Humidity 63    
Maximum Humidity 69    
Minimum Humidity 47    
Precipitation  
Precipitation 0.00 in 0.02 in - ()
Sea Level Pressure  
Sea Level Pressure 30.19 in    
Wind  
Wind Speed 7 mph ()    
Max Wind Speed 12 mph    
Max Gust Speed -    
Visibility 13.7 miles    
Events Snow    
Averages and records for this station are not official NWS values.
T = Trace of Precipitation, MM = Missing Value Source: Averaged Metar Reports

Daily Weather History Graph

Daily Weather History Graph

Search for Another Location

Airport:

Trip Planner

Search our weather history database for the weather conditions in past years. The results will help you decide how hot, cold, wet, or windy it might be!

Date:

Astronomy

Jan. 21, 2013 Rise Set
Actual Time 8:21 AM CST 4:39 PM CST
Civil Twilight 7:40 AM CST 5:19 PM CST
Nautical Twilight 6:57 AM CST 6:03 PM CST
Astronomical Twilight 6:15 AM CST 6:45 PM CST
Moon 12:16 PM CST (1/21) 3:52 AM CST (1/21)
Length of Visible Light 9h 39m
Length of Day
8h 18m
Waxing Gibbous, 75% of the Moon is Illuminated
Jan 21
Waxing Gibbous
Jan 26
Full
Feb 3
Last Quarter
Feb 10
New
Feb 17
First Quarter

Hourly Weather History & Observations

Time (CST) Temp. Windchill Dew Point Humidity Pressure Visibility Wind Dir Wind Speed Gust Speed Precip Events Conditions
12:00 AM -28 °F - -36 °F 49% 30.20 in 15 mi West 3.5 mph - -   Partly Cloudy
12:00 AM -27.4 °F -39.2 °F -36.4 °F 62% 30.20 in 15.0 mi West 3.5 mph - N/A   Scattered Clouds
1:00 AM -29.2 °F -49.7 °F -36.4 °F 68% 30.19 in 15.0 mi West 8.1 mph - N/A   Scattered Clouds
2:00 AM -29.2 °F -49.7 °F -36.4 °F 68% 30.17 in 15.0 mi West 8.1 mph - N/A   Scattered Clouds
3:00 AM -27.4 °F -45.9 °F -34.6 °F 69% 30.17 in 15.0 mi West 6.9 mph - N/A   Scattered Clouds
4:00 AM -25.6 °F -45.4 °F -34.6 °F 63% 30.17 in 15.0 mi West 8.1 mph - N/A   Scattered Clouds
5:00 AM -27.4 °F -47.6 °F -34.6 °F 69% 30.16 in 15.0 mi WNW 8.1 mph - N/A   Scattered Clouds
6:00 AM -27 °F - -34 °F 51% 30.15 in 15 mi West 8.1 mph - -   Scattered Clouds
6:00 AM -27.4 °F -47.6 °F -34.6 °F 69% 30.15 in 15.0 mi West 8.1 mph - N/A   Mostly Cloudy
7:00 AM -27.4 °F -50.3 °F -36.4 °F 62% 30.14 in 15.0 mi West 10.4 mph - N/A Snow Low Drifting Snow
8:00 AM -27.4 °F -49.0 °F -36.4 °F 62% 30.14 in 15.0 mi WNW 9.2 mph - N/A Snow Low Drifting Snow
9:00 AM -27.4 °F -49.0 °F -34.6 °F 69% 30.16 in 15.0 mi WNW 9.2 mph - N/A Snow Low Drifting Snow
10:00 AM -27.4 °F -49.0 °F -34.6 °F 69% 30.17 in 15.0 mi WNW 9.2 mph - N/A Snow Low Drifting Snow
11:00 AM -25.6 °F -46.8 °F -32.8 °F 69% 30.18 in 12.0 mi WNW 9.2 mph - N/A Snow Low Drifting Snow
12:00 PM -22 °F - -30 °F 49% 30.17 in 12 mi WNW 10.4 mph - - Snow Low Drifting Snow
12:00 PM -22.0 °F -42.3 °F -29.2 °F 69% 30.17 in 12.0 mi WNW 9.2 mph - N/A Snow Low Drifting Snow
12:51 PM - - - N/A% - 8.0 mi West 10.4 mph - N/A   Unknown
1:00 PM -20.2 °F -41.3 °F -29.2 °F 63% 30.17 in 8.0 mi West 10.4 mph - N/A Snow Light Snow
2:00 PM -20.2 °F -42.4 °F -29.2 °F 63% 30.17 in 10.0 mi West 11.5 mph - N/A Snow Light Snow
3:00 PM -18.4 °F -40.2 °F -29.2 °F 58% 30.19 in 12.0 mi WNW 11.5 mph - N/A Snow Light Snow
4:00 PM -20.2 °F -40.1 °F -29.2 °F 63% 30.21 in 12.0 mi WNW 9.2 mph - N/A Snow Light Snow
4:36 PM - - - N/A% - 15.0 mi WNW 8.1 mph - N/A   Partly Cloudy
5:00 PM -20.2 °F -38.8 °F -29.2 °F 63% 30.23 in 15.0 mi WNW 8.1 mph - N/A   Partly Cloudy
6:00 PM -21 °F - -30 °F 47% 30.24 in 9 mi WNW 6.9 mph - -   Partly Cloudy
6:00 PM -20.2 °F -38.8 °F -29.2 °F 63% 30.24 in 15.0 mi WNW 8.1 mph - N/A   Mostly Cloudy
7:00 PM -20.2 °F -33.5 °F -29.2 °F 63% 30.24 in 15.0 mi West 4.6 mph - N/A Snow Light Snow
8:00 PM -23.8 °F -41.6 °F -31.0 °F 69% 30.23 in 15.0 mi West 6.9 mph - N/A Snow Light Snow
9:00 PM -23.8 °F -37.7 °F -31.0 °F 69% 30.23 in 15.0 mi WNW 4.6 mph - N/A   Partly Cloudy
10:00 PM -23.8 °F - -31.0 °F 69% 30.22 in 15.0 mi WSW 2.3 mph - N/A   Partly Cloudy
11:00 PM -25.6 °F -37.1 °F -32.8 °F 69% 30.22 in 15.0 mi WSW 3.5 mph - N/A   Clear